星链-30789 (STARLINK-30789 )

导读 | 星芒AI

STARLINK-30789 是 SpaceX Starlink 项目中的一颗低轨通信卫星,属于第三代星链卫星(v1.5)。它于2023年发射,运行在约540公里高度的近地轨道,旨在为全球用户提供高速互联网服务。该卫星采用先进推进系统,具备自主变轨和避碰能力,提升了星座的稳定性和可持续性。作为星链网络的一部分,STARLINK-30789 支持宽带通信,助力偏远地区接入互联网,同时为未来全球覆盖和低延迟通信提供支持。

基本信息
目录编号:
58166
目录名称:
STARLINK-30789
国际标识:
2023-166S
轨道中心:
EARTH
卫星名称:
星链-30789
卫星全名:
星链-30789 (STARLINK-30789 )
卫星状态:
在轨 (已飞行782 天)
发射日期:
2023-10-29 UTC
国别 :
美国 (US)
星等 :
--
轨道信息
数据来源 国际轨道数据 AOE轨道数据
星历时间 2025-12-19T07:44:55+0800
18小时前
查看轨道信息
2025-12-19T07:00:00+0800
19小时前
查看轨道信息
半长轴 6853.378km 6853.378km
偏心率 0.0001458 0.0001748
轨道倾角 53.159° 53.159°
近地点辐角 97.990° 71.051°
升交点赤经 234.468° 234.614°
平近点角 262.126° 117.120°
近地点 474.241km 474.045km
远地点 476.241km 476.441km
周期 94.106分钟 94.106分钟
每日圈数 15.301914 15.301914
详细信息
固有亮度:
5
最大亮度:
0.3
卫星平台:
Starlink v2.0 mini
覆盖范围:
全球
运营商:
太空探索技术公司
运营商所在国:
美国
制造商(研发单位):
太空探索技术公司
制造商所在国:
美国
使用方式:
暂无
卫星简介
星链(Starlink)计划是由太空探索技术公司(SpaceX)提出的一个巨型低轨卫星互联网星座项目,计划在2019年至2024年间在太空搭建由约1.2万颗卫星组成的“星链”网络,其中1584颗将部署在地球上空550千米处的近地轨道,并从2020年开始工作。该卫星仍在工作。
2D轨道图
3D轨道图
轨道高度分析图
轨道倾角分析图
轨道综合分析图
查看轨道综合分析图